www.pogodaiklimat.ru
ПОГОДА в Кильмезе
Время
(UTC), дата
18 27.07
21 27.07
00 28.07
03 28.07
06 28.07
09 28.07
12 28.07
15 28.07
18 28.07
21 28.07
00 29.07
03 29.07
06 29.07
09 29.07
12 29.07
15 29.07
18 29.07
21 29.07
00 30.07
03 30.07
06 30.07
09 30.07
12 30.07
15 30.07
18 30.07
21 30.07
00 31.07
03 31.07
06 31.07
09 31.07
12 31.07
15 31.07
18 31.07
21 31.07
00 1.08
03 1.08
06 1.08
09 1.08
12 1.08
15 1.08
18 1.08
21 1.08
00 2.08
03 2.08
06 2.08
09 2.08
12 2.08
15 2.08
18 2.08
21 2.08
00 3.08
03 3.08
06 3.08
09 3.08
12 3.08
15 3.08
Ветер
(напр.,м/с)
Видим. Явления Облачность Т
(С)
Тd
(С)
f
(%)
Тe
(С)
Тes
(С)
Комфортность P
(гПа)
Po
(гПа)
Тmin
(С)
Tmax
(С)
R
(мм)
R24
(мм)
S
(см)
ЮЗ 1-1
{3}
20 км {ливн. дождь} 8/0
[Ac trans Cs]
+18.8 +15.1 79 +21 +21 комфорт 1018.6 1002.0
ЮЗ 1-2
{2}
50 км 9/0
[Cs]
+15.6 +14.0 90 +16 +16 1019.1 1002.0
ЮЗ 2-2
{3}
20 км местами туман поземный 6/0
[As trans Cs]
+14.3 +13.4 94 +14 +14 1019.5 1002.3
ЮЗ 2-3
{3}
20 км местами туман поземный 3/0
[Cs]
+15.5 +14.3 93 +15 +17 1019.3 1002.3 +11.9
З 2-4
{4}
20 км 4/1 1500 м
[Cu hum Ci fib]
+22.5 +14.4 60 +26 +34 жарко 1018.1 1001.7
СЗ 2-4
{7}
20 км 8/6 600 м
[Cu med, cong Cs]
+25.4 +15.5 54 +28 +33 жарко 1017.8 1001.3
СЗ 2-5
{6}
20 км {гроза} 8/6 600 м
[Cb cap Cs]
+25.6 +13.8 48 +28 +31 жарко 1016.5 1000.1
З 2-3
{7}
20 км 5/3 600 м
[Cb cap Cs]
+25.4 +13.9 49 +28 +28 жарко 1015.5 999.5 +27.3
ЮЗ 2-3
{3}
20 км 4/0
[Cs]
+20.7 +15.5 72 +24 +24 комфорт 1016.4 999.8
ЮЗ 2-3
{4}
50 км 4/0
[Ci fib]
+17.7 +15.5 87 +18 +18 1016.3 999.4
ЮЗ 2-3
{4}
20 км 3/0
[Cs]
+16.1 +14.0 87 +16 +16 1016.6 999.6
ЮЗ 2-4
{4}
20 км 3/0
[Ci fib]
+16.5 +14.6 89 +17 +19 1016.3 999.4 +15.4
З 2-4
{5}
20 км 5/0
[Ci fib]
+23.5 +15.6 61 +27 +35 душно 1015.8 999.4
ЮЗ 2-6
{6}
20 км 8/6 1000 м
[Cu med, cong Ci fib]
+26.2 +14.6 49 +29 +34 жарко 1014.9 998.7
ЮЗ 3-6
{7}
20 км 8/6 1000 м
[Cu med, cong Ci fib]
+25.8 +13.2 46 +28 +30 жарко 1013.6 997.4
З 2-4
{7}
20 км 6/4 600 м
[Cu hum Ac trans Cs]
+25.9 +12.2 43 +27 +28 жарко 1012.7 996.4 +27.1
СЗ 2-5
{5}
20 км 10/0
[Ac As Cs]
+20.1 +14.5 70 +23 +23 комфорт 1012.9 996.3
ЮЗ 3-4
{5}
50 км 10/8 600 м
[St Ci fib]
+18.7 +14.8 78 +20 +20 1011.7 995.0
ЮЗ 3-4
{6}
20 км 10/5 600 м
[St As op Cc]
+18.7 +14.0 74 +20 +20 1010.7 993.9
Ю 3-5
{5}
20 км в посл. час ливневой дождь 10/8 600 м
[Cb cap Cs]
+17.1 +15.7 91 +17 +17 1010.7 993.9 +16.8 3
Ю 5-7
{8}
20 км {ливн. дождь} 10/0
[Ac As Cs]
+22.1 +16.0 68 +26 +29 душно 1008.6 992.1
Ю 5-8
{10}
20 км 10/4 600 м
[Cb cap As trans]
+26.4 +16.4 54 +30 +32 душно 1006.6 990.5
ЮЗ 7-12
{13}
20 км 10/4 600 м
[Cb cap Ac As]
+28.6 +14.6 42 +31 +31 жарко 1004.1 988.5
ЮЗ 2-5
{13}
20 км в посл. час ливневой дождь 10/6 300 м
[Cb cap Ac As]
+24.4 +15.3 57 +27 +27 жарко 1004.6 988.3 +29.0 0.0
З 2-5
{12}
20 км {ливн. дождь} 8/5 600 м
[Sc Ac trans Ci fib]
+21.0 +15.1 69 +25 +25 комфорт 1006.0 989.5
ЮЗ 2-5
{6}
50 км 6/3 600 м
[Sc Ac trans Ci fib]
+17.6 +15.2 86 +18 +18 1006.0 989.4
ЮЗ 2-3
{5}
20 км 9/6 600 м
[Sc Ac trans Cs]
+16.1 +14.7 91 +16 +16 1006.0 989.2
ЮЗ 2-3
{4}
20 км 6/3 600 м
[Sc Ac cast Cs]
+16.1 +14.4 90 +16 +17 1005.8 989.0 +15.2
ЮЗ 3-5
{6}
20 км 8/5 1000 м
[Cu hum Ac trans Cs]
+21.3 +13.1 59 +24 +26 комфорт 1005.2 988.7
штиль 0
{9}
17 км гроза, ливневой дождь 10/8 600 м
[Cb cap As op]
+16.9 +13.5 80 +17 +18 1004.2 987.7
Ю 2-3
{4}
20 км гроза без осадков {ливн. дождь} 9/8 600 м
[Cb cap As op]
+18.5 +15.3 82 +20 +21 1004.0 987.5
Ю 3-4
{7}
20 км {гроза} 9/8 300 м
[Cb cap Ac As]
+18.9 +13.5 71 +20 +20 1004.0 987.4 +23.7 1
З 5-11
{11}
10 км слаб. ливневой дождь {гроза} 10/4 300 м
[Cb cap Ac As]
+13.7 +12.2 91 +12 +12 1005.6 988.6
ЮЗ 2-3
{11}
50 км {ливн. дождь} 10/3 600 м
[Sc Ac trans Ci fib]
+12.3 +11.9 97 +11 +11 1005.2 988.2
ЮЗ 2-3
{5}
20 км {ливн. дождь} 9/3 600 м
[Sc Ac trans Cs]
+11.8 +11.2 96 +11 +11 1006.1 989.1
ЮЗ 2-3
{3}
20 км 8/0
[Ac trans Cs]
+13.2 +12.3 94 +12 +14 1006.5 989.5 +11.3 3
ЮЗ 1-2
{3}
20 км 9/1 1500 м
[Cu hum Cc]
+17.9 +13.7 76 +19 +27 1006.4 989.7
Ю 3-4
{4}
20 км 9/3 600 м
[Cu hum Cc]
+20.6 +10.8 53 +23 +29 комфорт 1006.4 989.8
ЮВ 2-2
{5}
20 км 10/3 600 м
[Cu hum Cc]
+20.9 +10.5 51 +23 +27 комфорт 1006.2 989.7
ЮВ 2-2
{4}
20 км 10/8 600 м
[St Cs]
+18.8 +13.2 70 +20 +20 1005.4 988.9 +22.1
Ю 1-2
{9}
10 км слаб. дождь 10/0
[Ac As]
+13.7 +13.3 97 +14 +14 1005.5 988.6
СВ 4-6
{8}
3700 м дождь 10/10 300 м
[Frnb Ns]
+13.5 +13.1 97 +12 +12 1001.1 984.3
В 6-10
{10}
4000 м слаб. дождь 10/10 300 м
[Frnb Ns]
+14.3 +13.9 97 +12 +12 996.2 979.5
ЮВ 5-8
{10}
15 км слаб. дождь 10/8 300 м
[St As trans]
+15.5 +15.0 97 +14 +14 994.2 977.7 +13.3 11
Ю 9-15
{19}
20 км {дождь} 10/8 600 м
[Sc Ac As]
+15.9 +12.8 82 +14 +14 995.8 979.2
Ю 9-16
{20}
20 км в посл. час дождь 10/5 600 м
[Sc Ac As]
+16.7 +12.2 75 +15 +15 997.6 981.2
ЮЗ 7-14
{17}
20 км {дождь} 10/0
[Ac As]
+15.0 +11.5 80 +13 +14 1003.9 987.1
З 3-5
{14}
20 км 4/3 600 м
[Sc Cs]
+16.3 +11.1 71 +16 +16 1007.2 990.6 +19.1 0.0
ЮЗ 1-2
{5}
20 км 8/8 600 м
[St Ac trans]
+14.1 +11.7 85 +14 +14 1009.5 992.5
штиль 0
{3}
50 км 3/0
[Ac trans]
+12.3 +11.2 93 +12 +12 1010.3 993.2
СВ 1-1
{1}
4000 м слаб. дождь 10/9 300 м
[Frnb As op Cs]
+12.3 +11.5 95 +12 +12 1011.7 994.5
СВ 1-2
{3}
20 км в посл. час дождь 10/8 300 м
[St As trans]
+12.1 +11.7 97 +12 +12 1013.1 995.9 +11.3 6
В 1-2
{3}
6000 м дождь {снег} 10/8 300 м
[St As trans]
+12.9 +12.5 97 +13 +14 1014.3 997.3
В 2-4
{4}
20 км в посл. час дождь 10/10 300 м
[Frnb Ns]
+14.7 +13.8 94 +14 +14 1014.9 998.1
СЗ 1-3
{4}
20 км {дождь} 9/6 600 м
[Cb cap Cs]
+17.6 +13.7 78 +19 +22 1014.8 998.1
С 1-2
{3}
20 км 8/5 600 м
[Cb cap Ac trans Ci fib]
+18.3 +13.6 74 +20 +20 1015.2 998.5 +18.6 8
Местоположение метеостанции Кильмезь (Кировская область, Россия): широта 56.90 долгота 51.07 высота над уровнем моря 143 м.
В архиве по умолчанию представлена погода в Кильмезе за последнюю неделю. Архивные данные за месяц целиком и за предыдущие месяцы, начиная с января 2011 года, Вы можете получить, выбрав интересующий диапазон дат из раскрывающегося списка и нажав кнопку "Найти!".
*Определитесь, кто Вы:
Внимание! Время в таблицах - всемирное. Для получения местного времени необходимо прибавить поправку, которая равна 3 ч.
Смотрите также архив погоды в соседних городах и на ближайших метеорологических станциях:
Партнеры нашего сайта:      
Пояснения к столбцам:
  • Ветер - указаны скорость ветра в м/с - средняя за 10 мин, порывы в срок и между сроками (в фигурных скобках) и направление, откуда дует ветер: С - северный,
  • СВ - северо-восточный, В - восточный, ЮВ - юго-восточный, Ю - южный, ЮЗ - юго-западный, З - западный, СЗ - северо-западный.
  • Видимость - горизонтальная дальность видимости в метрах или километрах. При видимости от 1 до 10 км при отсутствии осадков обычно наблюдается дымка, при ухудшении видимости до 1 км и менее - туман. В сухую погоду видимость может ухудшаться дымом, пылью или мглою.
  • Явления - указаны атмосферные явления, наблюдавшиеся в срок или в последний час перед сроком; фигурными скобками обозначены явления, наблюдавшиеся между сроками (за 1-3 часа до срока); квадратными скобками обозначены град или гололедные отложения с указанием их диаметра в мм.
  • Облачность - указаны через наклонную черту общая и нижняя облачность в баллах и высота нижней границы облаков в метрах; квадратными скобками обозначены формы облаков: Ci - перистые, Cs - перисто-слоистые, Cc - перисто-кучевые, Ac - высококучевые, As - высокослоистые, Sc - слоисто-кучевые, Ns - слоисто-дождевые, Cu - кучевые, Cb - кучево-дождевые. Подробнее классификацию облаков см. в Атласе облаков (PDF).
  • T - Температура воздуха - температура, измеренная на высоте 2 м над землей.
  • Td - Температура точки росы - температура, при понижении до которой содержащийся в воздухе водяной пар достигнет насыщения.
  • f - Относительная влажность воздуха - влажноcть воздуха, измеренная на высоте 2 м над землей.
  • Te - Эффективная температура - температура, которую ощущает одетый по сезону человек в тени. Характеристика душности погоды. При расчете учитывается влияние влажности воздуха и скорости ветра на теплоощущения человека.
  • Tes - Эффективная температура на солнце - температура, которую ощущает человек, с поправкой на солнечный нагрев. Характеристика знойности погоды. Зависит от высоты солнца над горизонтом, облачности и скорости ветра. Ночью, в пасмурную погоду, а также при ветре 12 м/с и более поправка равна нулю.
  • P - Атмосферное давление - приведенное к уровню моря атмосферное давление.
  • Po - Атмосферное давление - измеренное на уровне метеостанции атмосферное давление.
  • Tmin - Минимальная температура - минимум температуры воздуха на высоте 2 м над землей.
  • Tmax - Максимальная температура - максимум температуры воздуха на высоте 2 м над землей.
  • R - Количество осадков - Количество выпавших осадков за период времени, мм. При наведении курсора мыши на число - период времени, за который выпало указанное количество осадков.
  • R24 - Количество осадков - Количество выпавших осадков за 24 часа, мм.
  • S - Снежный покров - Высота снежного покрова, см. При наведении курсора мыши на число - состояние снежного покрова и степень покрытия местности в баллах.